Location: Praha
(50.0830°N, 14.4670°E)
Time: 23:25:39
(UTC+02:00)

X-37B - Visible Passes

Search period start: 03 October 2023 00:00
Search period end: 13 October 2023 00:00
Orbit: 277 x 277 km, 45.0° (Epoch: 01 November)

Date Brightness Start Highest point End Pass type
(mag) Time Alt. Az. Time Alt. Az. Time Alt. Az.
09 Oct 2.4 19:35:11 10° S 19:36:11 12° SSE 19:36:15 12° SSE visible
10 Oct 2.0 19:35:04 10° SSW 19:36:41 16° SSE 19:36:58 15° SSE visible
11 Oct 1.7 19:35:19 10° SW 19:37:13 20° SSE 19:37:37 19° SSE visible
12 Oct 1.5 19:35:44 10° SW 19:37:46 23° S 19:38:14 21° SSE visible
